Tracking 28790 objects as of 19-Apr-2024
HD Live streaming from Space Station
objects crossing your sky now

THOR ABLESTAR DEB

Track THOR ABLESTAR DEB now!
10-day predictions


NORAD ID: 3744
Int'l Code: 1961-015JC
Perigee: 812.6 km
Apogee: 1,029.6 km
Inclination: 67.0 °
Period: 103.3 minutes
Semi major axis: 7292 km
RCS: 0.032 m2 (small)
Launch date: June 29, 1961
Source: United States (US)
Launch site: AIR FORCE EASTERN TEST RANGE (AFETR)

Note: This is SATELLITE DEBRIS
Your satellite tracking list
Your tracking list is empty




NASA's NSSDC Master Catalog

Two Line Element Set (TLE):
1 03744U 61015JC  24109.39667558  .00005233  00000-0  36438-2 0  9995
2 03744  66.9758 252.9863 0148825 331.4859  27.8138 13.94190658770095
Source of the keplerian elements: AFSPC